Home   Weather   Edmundston   Past weeks

Flag for Canada Past Weather in Edmundston, New Brunswick, Canada — Yesterday and Last 2 Weeks

Now
44 °F

Quite cool.


Feels Like: 44 °F
Forecast: N/A
Wind: 2 mph from West

Location: St Leonard

Current Time: Sep 29, 2016 at 8:44:31 PM

Latest Report: Sep 29, 2016 at 8:00 PM


Visibility: N/A

Pressure: 30.59 "Hg

Humidity: 86%

Dew Point: 40 °F

Location of EdmundstonLocation

Past Weather in Edmundston — Graph

°F

Edmundston Temperature Yesterday

Maximum temperature yesterday: 54 °F (at 4:00 PM)
Minimum temperature yesterday: 37 °F (at 7:00 AM)
Average temperature yesterday: 45 °F

High & Low Weather Summary for the Past Weeks

 TemperatureHumidityPressure
High75 °F (Sep 18, 4:00 PM)100% (Sep 18, 11:00 PM)30.63 "Hg (Sep 18, 11:00 PM)
Low32 °F (Sep 29, 7:00 AM)40% (Sep 21, 5:00 PM)29.83 "Hg (Sep 18, 7:00 AM)
Average51 °F82%30.12 "Hg
* Reported Sep 14 7:00 PM — Sep 29 7:00 PM, Edmundston, Weather by CustomWeather, © 2016

Note: Actual official high and low records may vary slightly from our data, if they occured in-between our weather recording intervals... More about our weather records

Advertising

Edmundston Weather History for the Previous 24 Hours

Scroll right to see more
 ConditionsComfort  
Time TempWeatherWind HumidityBarometerVisibility
7:00 PM
Thu, Sep 29
52 °FCool.1 mph64%30.57 "HgN/A
6:00 PM57 °FRefreshingly cool.3 mph48%30.56 "HgN/A
5:00 PM58 °FRefreshingly cool.7 mph42%30.55 "HgN/A
4:00 PM58 °FRefreshingly cool.3 mph46%30.57 "HgN/A
3:00 PM56 °FRefreshingly cool.5 mph50%30.59 "HgN/A
2:00 PM54 °FCool.7 mph53%30.59 "HgN/A
1:00 PM53 °FCool.8 mph57%30.61 "HgN/A
12:00 PM50 °FCool.6 mph66%30.63 "HgN/A
11:00 AM46 °FCool.5 mph86%30.62 "HgN/A
10:00 AM39 °FChilly.6 mph99%30.62 "HgN/A
9:00 AM35 °FChilly.5 mph99%30.63 "HgN/A
8:00 AM32 °FChilly.3 mph100%30.60 "HgN/A
7:00 AM32 °FChilly.3 mph100%30.58 "HgN/A
6:00 AM35 °FChilly.3 mph97%30.56 "HgN/A
5:00 AM35 °FChilly.5 mph97%30.56 "HgN/A
4:00 AM36 °FChilly.5 mph97%30.55 "HgN/A
3:00 AM35 °FChilly.5 mph100%30.55 "HgN/A
2:00 AM38 °FChilly.3 mph95%30.55 "HgN/A
1:00 AM41 °FQuite cool.3 mph93%30.55 "HgN/A
12:00 AM42 °FQuite cool.3 mph91%30.54 "HgN/A
11:00 PM
Wed, Sep 28
42 °FQuite cool.3 mph88%30.53 "HgN/A
10:00 PM42 °FQuite cool.3 mph87%30.53 "HgN/A
9:00 PM45 °FQuite cool.5 mph80%30.51 "HgN/A
8:00 PM47 °FCool.6 mph75%30.49 "HgN/A
Weather by CustomWeather, © 2016

See weather overviewHow to use our weather pages